Weather History for KOBE - July, 2013

Change the Weather History Date:

Tuesday, July 16, 2013

  Actual Average (KVRB) Record (KVRB)
Temperature  
Mean Temperature 76 °F 82 °F  
Max Temperature 84 °F 90 °F 99 °F (1972)
Min Temperature 69 °F 73 °F 69 °F (2006)
Degree Days  
Heating Degree Days 0 0  
Month to date heating degree days 0  
Since 1 June heating degree days 0  
Since 1 July heating degree days 0  
Cooling Degree Days 12 17  
Month to date cooling degree days 263  
Year to date cooling degree days 1525  
Since 1 June cooling degree days 719  
Growing Degree Days 26 (Base 50)    
Moisture  
Dew Point 71 °F    
Average Humidity 93    
Maximum Humidity 100    
Minimum Humidity 66    
Precipitation  
Precipitation 0.34 in 0.17 in 1.54 in (1987)
Month to date precipitation 2.95  
Year to date precipitation 24.99  
Sea Level Pressure  
Sea Level Pressure 30.13 in    
Wind  
Wind Speed 3 mph (East)    
Max Wind Speed 13 mph    
Max Gust Speed 20 mph    
Visibility 10 miles    
Events Rain , Thunderstorm    
T = Trace of Precipitation, MM = Missing Value Source: NWS Daily Summary

Daily Weather History Graph

Daily Weather History Graph

Search for Another Location

Airport or City:

Trip Planner

Search our weather history database for the weather conditions in past years. The results will help you decide how hot, cold, wet, or windy it might be!

Date:

Astronomy

Jul. 16, 2013 Rise Set
Actual Time 6:39 AM EDT 8:19 PM EDT
Civil Twilight 6:13 AM EDT 8:45 PM EDT
Nautical Twilight 5:41 AM EDT 9:16 PM EDT
Astronomical Twilight 5:09 AM EDT 9:49 PM EDT
Moon 2:11 PM EDT (7/16) 12:52 AM EDT (7/16)
Length of Visible Light 14h 32m
Length of Day
13h 40m
First Quarter, 56% of the Moon is Illuminated
Jul 16
First Quarter
Jul 22
Full
Jul 29
Last Quarter
Aug 6
New
Aug 14
First Quarter

Hourly Weather History & Observations

Time (EDT) Temp. Heat Index Dew Point Humidity Pressure Visibility Wind Dir Wind Speed Gust Speed Precip Events Conditions
12:15 AM 73.4 °F - 71.6 °F 94% 30.13 in 10.0 mi Calm Calm - N/A   Clear
12:35 AM 73.4 °F - 71.6 °F 94% 30.12 in 10.0 mi Calm Calm - N/A   Clear
12:55 AM 73.4 °F - 71.6 °F 94% 30.12 in 10.0 mi Calm Calm - N/A   Clear
1:15 AM 71.6 °F - 71.6 °F 100% 30.11 in 10.0 mi Calm Calm - N/A   Clear
1:35 AM 71.6 °F - 71.6 °F 100% 30.10 in 10.0 mi Calm Calm - N/A   Clear
1:55 AM 71.6 °F - 71.6 °F 100% 30.11 in 10.0 mi ENE 3.5 mph - N/A   Clear
2:15 AM 71.6 °F - 71.6 °F 100% 30.11 in 10.0 mi Calm Calm - N/A   Clear
2:35 AM 71.6 °F - 71.6 °F 100% 30.11 in 10.0 mi East 3.5 mph - N/A   Clear
2:55 AM 71.6 °F - 71.6 °F 100% 30.10 in 10.0 mi Calm Calm - N/A   Clear
3:15 AM 71.6 °F - 71.6 °F 100% 30.10 in 10.0 mi Calm Calm - N/A   Clear
3:35 AM 71.6 °F - 71.6 °F 100% 30.10 in 10.0 mi Calm Calm - N/A   Clear
3:55 AM 71.6 °F - 71.6 °F 100% 30.09 in 10.0 mi Calm Calm - N/A   Clear
4:15 AM 71.6 °F - 71.6 °F 100% 30.09 in 10.0 mi ENE 3.5 mph - N/A   Scattered Clouds
4:35 AM 71.6 °F - 71.6 °F 100% 30.09 in 10.0 mi Calm Calm - N/A   Clear
4:55 AM 71.6 °F - 69.8 °F 94% 30.09 in 10.0 mi ENE 3.5 mph - N/A   Clear
5:15 AM 71.6 °F - 69.8 °F 94% 30.09 in 10.0 mi Calm Calm - N/A   Clear
5:35 AM 71.6 °F - 69.8 °F 94% 30.09 in 10.0 mi Calm Calm - N/A   Clear
5:55 AM 71.6 °F - 69.8 °F 94% 30.09 in 10.0 mi Calm Calm - N/A   Clear
6:15 AM 69.8 °F - 69.8 °F 100% 30.09 in 10.0 mi Calm Calm - N/A   Clear
6:35 AM 69.8 °F - 69.8 °F 100% 30.09 in 10.0 mi Calm Calm - N/A   Clear
6:55 AM 69.8 °F - 69.8 °F 100% 30.10 in 10.0 mi NE 4.6 mph - N/A   Clear
7:15 AM 69.8 °F - 69.8 °F 100% 30.11 in 10.0 mi Calm Calm - N/A   Clear
7:35 AM 71.6 °F - 69.8 °F 94% 30.11 in 10.0 mi Calm Calm - N/A   Scattered Clouds
7:55 AM 71.6 °F - 69.8 °F 94% 30.12 in 10.0 mi Calm Calm - N/A   Clear
8:15 AM 71.6 °F - 71.6 °F 100% 30.13 in 10.0 mi Calm Calm - N/A   Scattered Clouds
8:35 AM 75.2 °F - 71.6 °F 89% 30.13 in 10.0 mi Calm Calm - N/A   Scattered Clouds
8:55 AM 77.0 °F - 71.6 °F 83% 30.13 in 10.0 mi East 4.6 mph - N/A   Clear
9:15 AM 78.8 °F - 71.6 °F 78% 30.14 in 10.0 mi East 6.9 mph - N/A   Clear
9:35 AM 80.6 °F 84.6 °F 71.6 °F 74% 30.14 in 10.0 mi East 9.2 mph - N/A   Clear
9:55 AM 80.6 °F 84.6 °F 71.6 °F 74% 30.14 in 10.0 mi East 10.4 mph 18.4 mph N/A   Scattered Clouds
10:15 AM 80.6 °F 84.6 °F 71.6 °F 74% 30.14 in 10.0 mi East 10.4 mph - N/A   Scattered Clouds
10:35 AM 82.4 °F 87.2 °F 71.6 °F 70% 30.14 in 10.0 mi East 11.5 mph 16.1 mph N/A   Scattered Clouds
10:55 AM 82.4 °F 87.2 °F 71.6 °F 70% 30.14 in 10.0 mi East 12.7 mph 18.4 mph N/A   Scattered Clouds
11:15 AM 82.4 °F 87.2 °F 71.6 °F 70% 30.14 in 10.0 mi East 9.2 mph - N/A   Scattered Clouds
11:35 AM 84.2 °F 89.6 °F 71.6 °F 66% 30.15 in 10.0 mi East 10.4 mph 19.6 mph N/A   Scattered Clouds
11:55 AM 82.4 °F 87.2 °F 71.6 °F 70% 30.15 in 10.0 mi East 10.4 mph 16.1 mph N/A Thunderstorm Thunderstorm
12:15 PM 77.0 °F - 71.6 °F 83% 30.15 in 10.0 mi SSE 6.9 mph - 0.02 in Thunderstorm Mostly Cloudy
12:35 PM 77.0 °F - 71.6 °F 83% 30.17 in 10.0 mi ESE 9.2 mph - 0.02 in Thunderstorm Thunderstorm
12:55 PM 73.4 °F - 71.6 °F 94% 30.18 in 10.0 mi SSE 12.7 mph - 0.02 in Thunderstorm Thunderstorm
1:15 PM 71.6 °F - 69.8 °F 94% 30.19 in 2.5 mi East 8.1 mph - 0.11 in Rain , Thunderstorm Heavy Thunderstorms and Rain
1:35 PM 71.6 °F - 69.8 °F 94% 30.18 in 7.0 mi SE 5.8 mph - 0.14 in Rain Rain
1:55 PM 71.6 °F - 69.8 °F 94% 30.18 in 10.0 mi SE 5.8 mph - 0.16 in Rain Light Rain
2:15 PM 71.6 °F - 69.8 °F 94% 30.19 in 4.0 mi Calm Calm - 0.04 in Rain Rain
2:35 PM 71.6 °F - 69.8 °F 94% 30.17 in 10.0 mi Calm Calm - 0.07 in Rain Light Rain
2:55 PM 71.6 °F - 71.6 °F 100% 30.15 in 10.0 mi Calm Calm - 0.10 in Rain Light Rain
3:15 PM 71.6 °F - 69.8 °F 94% 30.14 in 5.0 mi Calm Calm - 0.03 in Rain Rain
3:35 PM 71.6 °F - 69.8 °F 94% 30.14 in 10.0 mi East 3.5 mph - 0.06 in Rain Light Rain
3:55 PM 71.6 °F - 71.6 °F 100% 30.13 in 10.0 mi East 4.6 mph - 0.06 in Rain Light Rain
4:55 PM 73.4 °F - 71.6 °F 94% 30.13 in 10.0 mi ENE 3.5 mph - N/A Thunderstorm Clear
5:15 PM 73.4 °F - 71.6 °F 94% 30.13 in 10.0 mi NE 6.9 mph - N/A   Clear
5:35 PM 73.4 °F - 71.6 °F 94% 30.13 in 10.0 mi NE 9.2 mph - N/A   Clear
5:55 PM 73.4 °F - 71.6 °F 94% 30.11 in 10.0 mi NE 6.9 mph - N/A   Clear
6:15 PM 73.4 °F - 71.6 °F 94% 30.11 in 10.0 mi ENE 4.6 mph - N/A   Clear
6:35 PM 73.4 °F - 71.6 °F 94% 30.12 in 10.0 mi ENE 5.8 mph - N/A   Clear
6:55 PM 73.4 °F - 71.6 °F 94% 30.12 in 10.0 mi ENE 8.1 mph - N/A   Scattered Clouds
7:15 PM 73.4 °F - 71.6 °F 94% 30.12 in 10.0 mi East 4.6 mph - N/A   Clear
7:35 PM 73.4 °F - 71.6 °F 94% 30.13 in 10.0 mi NE 4.6 mph - N/A   Clear
7:55 PM 73.4 °F - 71.6 °F 94% 30.14 in 10.0 mi NE 4.6 mph - N/A   Clear
8:15 PM 73.4 °F - 71.6 °F 94% 30.13 in 10.0 mi Calm Calm - N/A Thunderstorm Clear
8:35 PM 73.4 °F - 71.6 °F 94% 30.14 in 10.0 mi Calm Calm - N/A Thunderstorm Clear
8:55 PM 71.6 °F - 71.6 °F 100% 30.14 in 10.0 mi Calm Calm - N/A   Clear
9:15 PM 71.6 °F - 71.6 °F 100% 30.14 in 10.0 mi Calm Calm - N/A   Clear
9:35 PM 71.6 °F - 71.6 °F 100% 30.14 in 10.0 mi Calm Calm - N/A   Clear
9:55 PM 71.6 °F - 71.6 °F 100% 30.15 in 10.0 mi NNE 3.5 mph - N/A   Clear
10:15 PM 71.6 °F - 71.6 °F 100% 30.15 in 10.0 mi Calm Calm - N/A   Clear
10:35 PM 71.6 °F - 71.6 °F 100% 30.15 in 10.0 mi NNE 4.6 mph - N/A   Clear
10:55 PM 71.6 °F - 71.6 °F 100% 30.15 in 10.0 mi NE 5.8 mph - N/A   Clear
11:15 PM 71.6 °F - 71.6 °F 100% 30.15 in 10.0 mi ENE 4.6 mph - N/A   Clear
11:35 PM 71.6 °F - 71.6 °F 100% 30.15 in 10.0 mi ENE 5.8 mph - N/A   Clear
11:55 PM 71.6 °F - 71.6 °F 100% 30.15 in 10.0 mi ENE 3.5 mph - N/A   Clear